Zurück zum Katalog

INTELSAT 33E DEB

AktivMEO
NORAD 64400·DEBRIS· XX

Gestartet Aug 24, 2016 von Guiana Space Centre

Loading…

Nächste Überflüge (nächste 24 Stunden)

TLE

AktuellSource: Space-Track

Epoche: Sep 13, 2026, 17:11 UTC

1 64400U 16053AE  26256.71640399 -.00000061  00000-0  00000-0 0  9997
2 64400   1.7074  79.5577 0382966 329.7246  28.8634  1.03351329  7074

Verfolge INTELSAT 33E DEB in Echtzeit mit AllMySat

Download on the App Store